This is the latest recevied weather packets stored in our database for station/object KF0KFL-13. If no packets are shown the sender has not sent any weather packets the latest 10 day(s).
| Time | Temp. | Humidity | Pressure | Rain* | Wind** | Luminosity | Snow |
|---|---|---|---|---|---|---|---|
| 1777306340 | 12.22° C | 98% | 1000.1 hPa | 1.78 mm | - | 61 W/m² | - |
| 1777305110 | 12.22° C | 98% | 1000.4 hPa | 0.76 mm | - | 52 W/m² | - |
| 1777303880 | 11.67° C | 98% | 1000.7 hPa | 0.76 mm | - | 135 W/m² | - |
| 1777302689 | 11.67° C | 98% | 1001.3 hPa | 1.27 mm | - | 81 W/m² | - |
| 1777302650 | 11.67° C | 98% | 1001.3 hPa | 1.27 mm | - | 81 W/m² | - |
| 1777301421 | 11.67° C | 97% | 1001.6 hPa | 1.02 mm | - | 30 W/m² | - |
| 1777300190 | 11.67° C | 95% | 1001.8 hPa | 0.51 mm | - | 41 W/m² | - |
| 1777298990 | 11.67° C | 95% | 1002.2 hPa | 0 mm | - | 18 W/m² | - |
| 1777297790 | 11.67° C | 95% | 1002.3 hPa | 0 mm | - | 40 W/m² | - |
| 1777296606 | 11.67° C | 95% | 1003 hPa | 0 mm | - | 30 W/m² | - |
| 1777296560 | 11.67° C | 95% | 1003 hPa | 0 mm | - | 30 W/m² | - |
| 1777295330 | 11.11° C | 95% | 1003.3 hPa | 0 mm | - | 21 W/m² | - |
| 1777294173 | 11.11° C | 96% | 1003.2 hPa | 0 mm | - | 25 W/m² | - |
| 1777294100 | 11.11° C | 96% | 1003.2 hPa | 0 mm | - | 25 W/m² | - |
| 1777292870 | 11.11° C | 96% | 1003.8 hPa | 0 mm | - | 14 W/m² | - |
| 1777291670 | 11.11° C | 96% | 1003.6 hPa | 0 mm | - | 11 W/m² | - |
| 1777290440 | 11.11° C | 97% | 1003.8 hPa | 0.25 mm | - | 4 W/m² | - |
| 1777289210 | 11.11° C | 97% | 1004.1 hPa | 0.51 mm | - | 0 W/m² | - |
| 1777287980 | 11.11° C | 96% | 1004.4 hPa | 1.02 mm | - | 0 W/m² | - |
| 1777286806 | 11.11° C | 96% | 1004 hPa | 1.02 mm | - | 0 W/m² | - |
| 1777286750 | 11.11° C | 96% | 1004 hPa | 1.02 mm | - | 0 W/m² | - |
| 1777285555 | 11.11° C | 96% | 1004.3 hPa | 2.79 mm | - | 0 W/m² | - |
| 1777285520 | 11.11° C | 96% | 1004.3 hPa | 2.79 mm | - | 0 W/m² | - |
| 1777284290 | 11.11° C | 95% | 1004.4 hPa | 2.79 mm | - | 0 W/m² | - |
| 1777283090 | 11.11° C | 95% | 1004.4 hPa | 2.03 mm | - | 0 W/m² | - |
* Rain latest hour (hover to see other rain measurements)
** Current wind speed in m/s (hover to see current wind gust speed)